TimeCDT,TemperatureF,Dew PointF,Humidity,Sea Level PressureIn,VisibilityMPH,Wind Direction,Wind SpeedMPH,Gust SpeedMPH,PrecipitationIn,Events,Conditions,WindDirDegrees,DateUTC
12:15 AM,37.4,35.6,93,29.86,5.0,SSW,10.4,-,N/A,,Clear,210,2012-10-15 05:15:00
12:35 AM,37.4,35.6,93,29.85,7.0,SSW,10.4,-,N/A,,Clear,210,2012-10-15 05:35:00
12:55 AM,37.4,37.4,100,29.85,8.0,SSW,10.4,-,N/A,,Clear,210,2012-10-15 05:55:00
1:15 AM,37.4,35.6,93,29.85,7.0,SSW,9.2,-,N/A,,Clear,210,2012-10-15 06:15:00
1:35 AM,37.4,35.6,93,29.85,8.0,SSW,10.4,-,N/A,,Clear,200,2012-10-15 06:35:00
1:55 AM,37.4,35.6,93,29.84,7.0,SSW,10.4,-,N/A,,Clear,200,2012-10-15 06:55:00
2:15 AM,37.4,35.6,93,29.84,7.0,SSW,11.5,-,N/A,,Partly Cloudy,200,2012-10-15 07:15:00
2:35 AM,37.4,35.6,93,29.83,10.0,South,10.4,-,N/A,,Clear,190,2012-10-15 07:35:00
2:55 AM,39.2,35.6,87,29.82,10.0,SSW,11.5,-,N/A,,Clear,200,2012-10-15 07:55:00
3:15 AM,39.2,35.6,87,29.82,10.0,SSW,11.5,-,N/A,,Clear,200,2012-10-15 08:15:00
3:35 AM,37.4,35.6,93,29.81,10.0,SSW,11.5,-,N/A,,Clear,200,2012-10-15 08:35:00
3:55 AM,37.4,35.6,93,29.81,10.0,SSW,11.5,-,N/A,,Clear,200,2012-10-15 08:55:00
4:15 AM,37.4,35.6,93,29.80,10.0,South,11.5,-,N/A,,Clear,190,2012-10-15 09:15:00
4:55 AM,37.4,35.6,93,29.79,10.0,SSW,11.5,-,N/A,,Clear,200,2012-10-15 09:55:00
5:15 AM,37.4,35.6,93,29.78,10.0,South,13.8,-,N/A,,Clear,190,2012-10-15 10:15:00
5:35 AM,39.2,35.6,87,29.77,10.0,South,13.8,-,N/A,,Clear,180,2012-10-15 10:35:00
5:55 AM,39.2,35.6,87,29.77,10.0,South,15.0,-,N/A,,Clear,190,2012-10-15 10:55:00
6:15 AM,39.2,37.4,93,29.76,10.0,South,16.1,-,N/A,,Clear,190,2012-10-15 11:15:00
6:35 AM,39.2,37.4,93,29.76,10.0,South,15.0,-,N/A,,Clear,190,2012-10-15 11:35:00
6:55 AM,39.2,37.4,93,29.76,10.0,South,12.7,-,N/A,,Clear,190,2012-10-15 11:55:00
7:15 AM,39.2,37.4,93,29.75,10.0,South,15.0,-,N/A,,Clear,190,2012-10-15 12:15:00
7:35 AM,41.0,37.4,87,29.75,10.0,South,13.8,-,N/A,,Partly Cloudy,190,2012-10-15 12:35:00
7:55 AM,41.0,37.4,87,29.75,10.0,SSW,15.0,-,N/A,,Mostly Cloudy,200,2012-10-15 12:55:00
8:15 AM,41.0,39.2,93,29.74,10.0,South,12.7,19.6,N/A,,Overcast,190,2012-10-15 13:15:00
8:35 AM,41.0,39.2,93,29.74,7.0,SSW,15.0,19.6,N/A,Rain,Light Rain,200,2012-10-15 13:35:00
8:55 AM,42.8,39.2,87,29.74,9.0,South,13.8,-,N/A,Rain,Light Rain,190,2012-10-15 13:55:00
9:15 AM,44.6,41.0,87,29.74,9.0,South,13.8,-,N/A,,Overcast,190,2012-10-15 14:15:00
9:35 AM,44.6,41.0,87,29.73,5.0,South,13.8,-,N/A,Rain,Light Rain,180,2012-10-15 14:35:00
9:55 AM,44.6,42.8,93,29.71,9.0,South,13.8,-,N/A,,Mostly Cloudy,170,2012-10-15 14:55:00
10:15 AM,46.4,44.6,93,29.69,10.0,SSE,15.0,-,N/A,,Mostly Cloudy,160,2012-10-15 15:15:00
10:35 AM,48.2,44.6,87,29.68,10.0,SSE,13.8,-,N/A,,Mostly Cloudy,160,2012-10-15 15:35:00
10:55 AM,50.0,44.6,82,29.67,10.0,South,15.0,-,N/A,,Partly Cloudy,170,2012-10-15 15:55:00
11:15 AM,50.0,44.6,82,29.66,10.0,South,16.1,21.9,N/A,,Mostly Cloudy,180,2012-10-15 16:15:00
11:35 AM,50.0,46.4,87,29.66,10.0,South,18.4,23.0,N/A,,Mostly Cloudy,180,2012-10-15 16:35:00
11:55 AM,51.8,46.4,82,29.65,10.0,South,19.6,23.0,N/A,,Partly Cloudy,180,2012-10-15 16:55:00
12:15 PM,53.6,46.4,77,29.64,10.0,South,21.9,25.3,N/A,,Scattered Clouds,180,2012-10-15 17:15:00
12:35 PM,55.4,46.4,72,29.63,10.0,South,23.0,27.6,N/A,,Mostly Cloudy,180,2012-10-15 17:35:00
12:55 PM,57.2,46.4,67,29.62,10.0,South,21.9,29.9,N/A,,Mostly Cloudy,180,2012-10-15 17:55:00
1:15 PM,57.2,46.4,67,29.61,10.0,South,21.9,26.5,N/A,,Mostly Cloudy,180,2012-10-15 18:15:00
1:35 PM,59.0,44.6,59,29.60,10.0,South,19.6,31.1,N/A,,Overcast,190,2012-10-15 18:35:00
1:55 PM,60.8,42.8,52,29.59,10.0,SSW,24.2,28.8,N/A,,Overcast,200,2012-10-15 18:55:00
2:15 PM,60.8,42.8,52,29.58,10.0,South,20.7,27.6,N/A,,Mostly Cloudy,190,2012-10-15 19:15:00
2:35 PM,62.6,42.8,48,29.56,10.0,South,21.9,29.9,N/A,,Mostly Cloudy,190,2012-10-15 19:35:00
2:55 PM,62.6,41.0,45,29.55,10.0,SSW,21.9,32.2,N/A,,Mostly Cloudy,200,2012-10-15 19:55:00
3:15 PM,62.6,41.0,45,29.55,10.0,SSW,20.7,27.6,N/A,,Clear,200,2012-10-15 20:15:00
3:35 PM,64.4,41.0,42,29.54,10.0,SSW,21.9,31.1,N/A,,Clear,200,2012-10-15 20:35:00
3:55 PM,64.4,42.8,45,29.55,10.0,SSW,20.7,26.5,N/A,,Clear,210,2012-10-15 20:55:00
4:15 PM,64.4,41.0,42,29.54,10.0,SW,21.9,27.6,N/A,,Clear,220,2012-10-15 21:15:00
4:35 PM,64.4,41.0,42,29.54,10.0,SSW,17.3,21.9,N/A,,Clear,210,2012-10-15 21:35:00
4:55 PM,64.4,41.0,42,29.54,10.0,SSW,16.1,-,N/A,,Clear,210,2012-10-15 21:55:00
5:15 PM,62.6,42.8,48,29.54,10.0,SSW,11.5,-,N/A,,Clear,200,2012-10-15 22:15:00
5:35 PM,62.6,44.6,52,29.53,10.0,South,9.2,-,N/A,,Clear,180,2012-10-15 22:35:00
5:55 PM,60.8,44.6,55,29.53,10.0,South,10.4,-,N/A,,Clear,190,2012-10-15 22:55:00
6:15 PM,59.0,44.6,59,29.53,10.0,South,11.5,-,N/A,,Clear,190,2012-10-15 23:15:00
6:35 PM,57.2,44.6,63,29.52,10.0,South,9.2,-,N/A,,Clear,190,2012-10-15 23:35:00
6:55 PM,55.4,44.6,67,29.53,10.0,SSW,9.2,-,N/A,,Clear,200,2012-10-15 23:55:00
7:15 PM,55.4,44.6,67,29.53,10.0,SW,9.2,-,N/A,,Clear,220,2012-10-16 00:15:00
7:35 PM,53.6,42.8,67,29.53,10.0,SW,9.2,-,N/A,,Clear,220,2012-10-16 00:35:00
7:55 PM,55.4,42.8,63,29.53,10.0,SW,10.4,-,N/A,,Clear,220,2012-10-16 00:55:00
8:15 PM,51.8,42.8,71,29.53,10.0,WSW,9.2,-,N/A,,Clear,240,2012-10-16 01:15:00
8:35 PM,51.8,42.8,71,29.53,10.0,WSW,8.1,-,N/A,,Unknown,250,2012-10-16 01:35:00
8:55 PM,50.0,42.8,76,29.53,10.0,WSW,8.1,-,N/A,,Clear,250,2012-10-16 01:55:00
9:15 PM,50.0,42.8,76,29.53,9.0,West,4.6,-,N/A,,Clear,280,2012-10-16 02:15:00
9:35 PM,50.0,42.8,76,29.53,8.0,WNW,8.1,-,N/A,,Clear,290,2012-10-16 02:35:00
9:55 PM,51.8,42.8,71,29.53,10.0,NW,8.1,-,N/A,,Clear,310,2012-10-16 02:55:00
10:15 PM,53.6,42.8,67,29.53,10.0,NW,10.4,-,N/A,,Clear,310,2012-10-16 03:15:00
10:35 PM,53.6,42.8,67,29.53,10.0,NW,9.2,-,N/A,,Clear,320,2012-10-16 03:35:00
10:55 PM,50.0,42.8,76,29.53,10.0,NW,11.5,-,N/A,,Clear,320,2012-10-16 03:55:00
11:15 PM,51.8,41.0,67,29.53,10.0,NW,10.4,-,N/A,,Clear,320,2012-10-16 04:15:00
11:35 PM,50.0,41.0,71,29.53,10.0,NW,9.2,-,N/A,,Clear,310,2012-10-16 04:35:00
11:55 PM,48.2,41.0,76,29.54,10.0,NW,9.2,-,N/A,,Clear,310,2012-10-16 04:55:00